KIKU-8 (ETS-VIII)

Last updated on Sat Feb 25 2017 00:17:10 GMT+0000 (Coordinated Universal Time)

1 29656U 06059A 17055.13143986 .00000031 00000-0 00000+0 0 9994 2 29656 5.3994 59.9304 0010394 223.1170 136.9649 0.99005603 37340
UTC large
Height (km)
Speed (km/s)
/
Latitude / Longitude
Inclination (degrees)
Orbital Period (minutes)
Azimuth
Elevation
Range (km)
Doppler Factor

Next 0 passes for location: London (51.5072 / 0.1276)

Sorry there are no passes over London.